Wallingford, CT

3:22 AM EST on February 08, 2016 (GMT -0500)
Meriden Markham Municipal

Weather History for KMMK - April, 2013

Change the Weather History Date:

Monday, April 1, 2013

  Actual Average (KHVN) Record (KHVN)
Temperature  
Mean Temperature 48 °F -  
Max Temperature 62 °F 50 °F 71 °F (1986)
Min Temperature 35 °F 36 °F 26 °F (1970)
Degree Days  
Heating Degree Days 17    
Moisture  
Dew Point 37 °F    
Average Humidity 72    
Maximum Humidity 93    
Minimum Humidity 37    
Precipitation  
Precipitation 0.05 in - - ()
Sea Level Pressure  
Sea Level Pressure 29.68 in    
Wind  
Wind Speed 5 mph (WNW)    
Max Wind Speed 21 mph    
Max Gust Speed 37 mph    
Visibility 9 miles    
Events Rain    
Averages and records for this station are not official NWS values.
T = Trace of Precipitation, MM = Missing Value Source: NWS Daily Summary

Daily Weather History Graph

Daily Weather History Graph

Search for Another Location

Airport or City:

Trip Planner

Search our weather history database for the weather conditions in past years. The results will help you decide how hot, cold, wet, or windy it might be!

Date:

Astronomy

Apr. 01, 2013 Rise Set
Actual Time 6:33 AM EDT 7:16 PM EDT
Civil Twilight 6:06 AM EDT 7:44 PM EDT
Nautical Twilight 5:32 AM EDT 8:18 PM EDT
Astronomical Twilight 4:58 AM EDT 8:52 PM EDT
Moon 12:25 AM EDT (4/1) 10:14 AM EDT (4/1)
Length of Visible Light 13h 38m
Length of Day
12h 42m
Waning Gibbous, 67% of the Moon is Illuminated
Apr 1
Waning Gibbous
Apr 3
Last Quarter
Apr 10
New
Apr 18
First Quarter
Apr 25
Full

Hourly Weather History & Observations

Time (EDT) Temp. Windchill Dew Point Humidity Pressure Visibility Wind Dir Wind Speed Gust Speed Precip Events Conditions
12:00 AM 44.6 °F - 42.8 °F 93% 29.65 in 3.0 mi Calm Calm - 0.00 in Rain Light Rain
12:53 AM 44.1 °F 40.1 °F 42.1 °F 93% 29.64 in 3.0 mi NW 6.9 mph - 0.01 in Rain Light Rain
1:35 AM 44.6 °F 43.1 °F 42.8 °F 93% 29.62 in 6.0 mi North 3.5 mph - 0.00 in   Overcast
1:44 AM 44.6 °F 43.1 °F 42.8 °F 93% 29.63 in 9.0 mi NW 3.5 mph - 0.00 in   Overcast
2:34 AM 44.6 °F - 42.8 °F 93% 29.63 in 10.0 mi Calm Calm - N/A   Overcast
2:45 AM 44.6 °F - 42.8 °F 93% 29.63 in 10.0 mi Calm Calm - N/A   Overcast
2:53 AM 44.1 °F - 42.1 °F 93% 29.64 in 10.0 mi Calm Calm - N/A   Overcast
3:07 AM 44.6 °F - 42.8 °F 93% 29.64 in 9.0 mi Calm Calm - N/A   Overcast
3:53 AM 44.1 °F 42.5 °F 42.1 °F 93% 29.66 in 10.0 mi SSW 3.5 mph - N/A   Overcast
5:42 AM 44.6 °F 42.2 °F 39.2 °F 81% 29.67 in 10.0 mi West 4.6 mph - N/A   Scattered Clouds
5:53 AM 44.1 °F 40.1 °F 39.9 °F 85% 29.68 in 10.0 mi West 6.9 mph - N/A   Partly Cloudy
6:53 AM 44.1 °F 41.5 °F 39.9 °F 85% 29.68 in 10.0 mi West 4.6 mph - N/A   Clear
7:53 AM 46.0 °F 44.8 °F 41.0 °F 83% 29.67 in 10.0 mi SSE 3.5 mph - N/A   Clear
8:53 AM 50.0 °F - 42.1 °F 74% 29.68 in 10.0 mi West 9.2 mph - N/A   Clear
9:53 AM 54.0 °F - 39.9 °F 59% 29.66 in 10.0 mi Variable 3.5 mph - N/A   Clear
10:53 AM 57.0 °F - 39.9 °F 53% 29.64 in 10.0 mi West 9.2 mph - N/A   Clear
11:53 AM 55.9 °F - 44.1 °F 64% 29.64 in 10.0 mi South 18.4 mph 23.0 mph N/A   Mostly Cloudy
12:53 PM 57.9 °F - 43.0 °F 58% 29.61 in 10.0 mi South 13.8 mph - N/A   Clear
1:53 PM 59.0 °F - 41.0 °F 51% 29.59 in 10.0 mi South 13.8 mph 20.7 mph N/A   Overcast
2:53 PM 59.0 °F - 39.9 °F 49% 29.60 in 8.0 mi West 17.3 mph 25.3 mph 0.00 in Rain Light Rain
3:04 PM 51.8 °F - 44.6 °F 76% 29.60 in 3.0 mi WNW 11.5 mph 27.6 mph 0.03 in Rain Rain
3:53 PM 52.0 °F - 45.0 °F 77% 29.62 in 10.0 mi West 9.2 mph - 0.04 in Rain Light Rain
4:53 PM 46.0 °F 38.3 °F 35.1 °F 66% 29.68 in 10.0 mi NNW 20.7 mph 36.8 mph N/A   Overcast
5:53 PM 44.1 °F 39.0 °F 34.0 °F 68% 29.71 in 10.0 mi North 9.2 mph - 0.00 in Rain Light Rain
6:53 PM 43.0 °F 36.8 °F 30.9 °F 62% 29.73 in 10.0 mi North 11.5 mph - 0.00 in   Overcast
7:53 PM 41.0 °F - 28.9 °F 62% 29.76 in 10.0 mi Calm Calm - N/A   Clear
8:53 PM 41.0 °F 34.7 °F 19.9 °F 43% 29.80 in 10.0 mi NW 10.4 mph 23.0 mph N/A   Clear
9:53 PM 39.0 °F 31.4 °F 15.1 °F 38% 29.84 in 10.0 mi NNW 12.7 mph 21.9 mph N/A   Clear
10:53 PM 37.0 °F 29.3 °F 12.9 °F 37% 29.86 in 10.0 mi NNW 11.5 mph 17.3 mph N/A   Clear
11:53 PM 35.1 °F 29.3 °F 14.0 °F 42% 29.87 in 10.0 mi NW 6.9 mph - N/A   Clear